Home > Time Zones > World Clock > Weather > U.S.A. > Napa > Past weeks

Flag for U.S.A. Weather past 2 weeks in Napa, California, U.S.A.

Now
59 °F

Clear.


Feels Like: 57 °F
Forecast: 55 / 80 °F
Wind: 9 mph from Southwest

Location: Napa County Airport

Current Time: Aug 22, 2014 at 9:24:32 PM

Latest Report: Aug 22, 2014 at 8:54 PM


Visibility: 10 mi

Pressure: 29.86 "Hg

Humidity: 90%

Dew point: 56 °F

Location of NapaLocation

Historic Weather in Napa — Graph

°F

Napa temperature yesterday

Maximum temperature yesterday: 79 °F (at 3:54 PM)
Minimum temperature yesterday: 59 °F (at 5:54 AM)
Average temperature yesterday: 66 °F

Past Weeks' High & Low Weather Summary

 TemperatureHumidityPressure
High80 °F (Aug 16, 2:54 PM)100% (Aug 11, 2:54 AM)30.03 "Hg (Aug 11, 2:54 AM)
Low47 °F (Aug 16, 5:56 AM)47% (Aug 16, 2:54 PM)29.76 "Hg (Aug 18, 5:54 PM)
Average63 °F80%29.90 "Hg
* Reported Aug 7 7:54 PM — Aug 22 7:54 PM, Napa, Weather by CustomWeather, © 2014

Note: Actual official high and low records may vary slightly from our data, if they occured in-between our weather recording intervals... More about our weather records

Advertising

Napa weather history for previous 24 hours

 ConditionsComfort  
Time TempWeatherWind HumidityBarometerVisibility
7:54 PM
Aug 22
63 °FSunny.14 mph81%29.84 "Hg10 mi
6:54 PM70 °FSunny.15 mph71%29.83 "Hg10 mi
5:54 PM73 °FSunny.15 mph66%29.84 "Hg10 mi
4:54 PM75 °FSunny.17 mph62%29.83 "Hg10 mi
3:54 PM73 °FSunny.20 mph62%29.84 "Hg10 mi
2:54 PM74 °FSunny.18 mph60%29.84 "Hg10 mi
1:54 PM74 °FSunny.20 mph60%29.86 "Hg10 mi
12:54 PM73 °FSunny.13 mph59%29.88 "Hg10 mi
11:54 AM71 °FSunny.10 mph61%29.89 "Hg10 mi
10:54 AM65 °FScattered clouds.8 mph73%29.92 "Hg10 mi
9:54 AM63 °FOvercast.10 mph81%29.90 "Hg10 mi
8:54 AM60 °FOvercast.8 mph90%29.90 "Hg10 mi
8:01 AM58 °FOvercast.9 mph93%29.93 "Hg10 mi
6:54 AM58 °FLow clouds.8 mph93%29.90 "Hg10 mi
5:54 AM58 °FLow clouds.8 mph93%29.88 "Hg10 mi
4:54 AM58 °FLow clouds.8 mph97%29.88 "Hg10 mi
3:54 AM60 °FLow clouds.No wind93%29.89 "Hg10 mi
2:54 AM60 °FLow clouds.6 mph93%29.89 "Hg10 mi
1:54 AM61 °FLow clouds.7 mph90%29.89 "Hg10 mi
12:54 AM61 °FLow clouds.6 mph93%29.89 "Hg10 mi
11:54 PM
Aug 21
62 °FPassing clouds.8 mph90%29.89 "Hg10 mi
10:54 PM61 °FClear.10 mph90%29.88 "Hg10 mi
9:54 PM63 °FClear.12 mph84%29.87 "Hg10 mi
Weather by CustomWeather, © 2014

See weather overviewHow to use our weather pages